Flag for Bolivia Weather past 2 weeks in Cochabamba, Bolivia

Now
54 °F

Clear.


Feels Like: 54 °F
Forecast: 45 / 72 °F
Wind: No wind

Location: Cochabamba Airport

Current Time: Sep 1, 2015 at 4:07:18 AM

Latest Report: Sep 1, 2015 at 3:00 AM


Visibility: N/A

Pressure: 30.42 "Hg (22.32 "Hg at 2584m altitude)

Humidity: 58%

Dew point: 39 °F

Location of CochabambaLocation

Historic Weather in Cochabamba — Graph

°F

Cochabamba temperature yesterday

Maximum temperature yesterday: 79 °F (at 4:00 PM)
Minimum temperature yesterday: 41 °F (at 7:00 AM)
Average temperature yesterday: 62 °F

Past Weeks' High & Low Weather Summary

 TemperatureHumidityPressure
High82 °F (Aug 22, 4:00 PM)94% (Aug 24, 4:00 AM)30.48 "Hg (Aug 24, 4:00 AM)
Low39 °F (Aug 30, 7:00 AM)5% (Aug 30, 5:00 PM)30.07 "Hg (Aug 22, 4:00 PM)
Average63 °F39%30.28 "Hg
* Reported Aug 17 3:00 AM — Sep 1 3:00 AM, Cochabamba, Weather by CustomWeather, © 2015

Note: Actual official high and low records may vary slightly from our data, if they occured in-between our weather recording intervals... More about our weather records

Advertising

Cochabamba weather history for previous 24 hours

 ConditionsComfort  
Time TempWeatherWind HumidityBarometerVisibility
3:00 AM
Tue, Sep 1
54 °FClear.No wind58%30.42 "HgN/A
2:00 AM55 °FClear.No wind51%30.42 "HgN/A
1:00 AM57 °FClear.No wind51%30.42 "HgN/A
12:00 AM61 °FClear.3 mph39%30.42 "HgN/A
11:00 PM
Mon, Aug 31
61 °FClear.No wind36%30.39 "HgN/A
10:00 PM63 °FClear.5 mph34%30.36 "HgN/A
9:00 PM66 °FClear.No wind28%30.33 "HgN/A
8:00 PM68 °FClear.No wind30%30.30 "HgN/A
7:00 PM72 °FClear.8 mph29%30.27 "HgN/A
6:00 PM75 °FPassing clouds.8 mph22%30.27 "HgN/A
5:00 PM79 °FPassing clouds.5 mph16%30.27 "HgN/A
4:00 PM79 °FPassing clouds.7 mph15%30.27 "HgN/A
3:00 PM77 °FPassing clouds.6 mph15%30.30 "HgN/A
2:00 PM77 °FPassing clouds.5 mph15%30.33 "HgN/A
1:00 PM75 °FPassing clouds.3 mph14%30.39 "HgN/A
12:00 PM72 °FPassing clouds.5 mph16%30.42 "HgN/A
11:00 AM68 °FPassing clouds.No wind20%30.45 "Hg5 mi
10:00 AM64 °FClear.5 mph28%30.48 "Hg4 mi
9:00 AM57 °FClear.3 mph31%30.48 "Hg4 mi
8:00 AM50 °FClear.No wind54%30.45 "Hg5 mi
7:00 AM41 °FClear.No wind66%30.42 "Hg5 mi
6:00 AM45 °FClear.No wind53%30.39 "Hg6 mi
5:00 AM46 °FClear.No wind46%30.39 "Hg6 mi
4:00 AM45 °FClear.No wind53%30.39 "Hg6 mi
Weather by CustomWeather, © 2015

See weather overviewHow to use our weather pages